H1 CPF 2 NER 2022 12 10 9 344 01 glonass140 H2 1903001 9140 44299 2022 12 10 0 0 0 2022 12 13 23 45 0 900 1 1 0 0 0 1 H9 10 0 59923 0.00000 0 19484547.265 400967.705 -16447900.843 10 0 59923 900.00000 0 17481620.907 1217353.921 -18522895.564 10 0 59923 1800.00000 0 15337569.693 2287828.292 -20237734.155 10 0 59923 2700.00000 0 13118093.415 3610374.852 -21558963.200 10 0 59923 3600.00000 0 10888980.238 5170499.649 -22460776.400 10 0 59923 4500.00000 0 8713491.797 6941609.036 -22925525.656 10 0 59923 5400.00000 0 6649868.818 8885908.784 -22944073.043 10 0 59923 6300.00000 0 4749061.535 10955788.046 -22515976.366 10 0 59923 7200.00000 0 3052779.931 13095631.435 -21649504.119 10 0 59923 8100.00000 0 1591945.198 15243984.346 -20361479.101 10 0 59923 9000.00000 0 385607.002 17335981.444 -18676953.259 10 0 59923 9900.00000 0 -559628.536 19305936.710 -16628719.780 10 0 59923 10800.00000 0 -1249636.949 21089986.428 -14256671.758 10 0 59923 11700.00000 0 -1702279.093 22628673.908 -11607019.927 10 0 59923 12600.00000 0 -1946392.627 23869366.927 -8731385.088 10 0 59923 13500.00000 0 -2020315.419 24768405.899 -5685783.435 10 0 59923 14400.00000 0 -1970005.032 25292892.125 -2529525.369 10 0 59923 15300.00000 0 -1846835.600 25422040.757 675949.687 10 0 59923 16200.00000 0 -1705167.148 25148041.778 3868278.635 10 0 59923 17100.00000 0 -1599791.904 24476393.275 6985395.739 10 0 59923 18000.00000 0 -1583367.131 23425693.811 9966744.489 10 0 59923 18900.00000 0 -1703944.194 22026903.686 12754456.078 10 0 59923 19800.00000 0 -2002699.086 20322107.229 15294471.286 10 0 59923 20700.00000 0 -2511960.609 18362829.185 17537583.928 10 0 59923 21600.00000 0 -3253619.450 16207976.599 19440386.234 10 0 59923 22500.00000 0 -4237984.980 13921492.827 20966098.641 10 0 59923 23400.00000 0 -5463137.555 11569821.811 22085269.122 10 0 59923 24300.00000 0 -6914803.291 9219287.959 22776329.849 10 0 59923 25200.00000 0 -8566756.524 6933499.849 23026001.854 10 0 59923 26100.00000 0 -10381733.289 4770884.527 22829541.086 10 0 59923 27000.00000 0 -12312818.207 2782453.247 22190822.177 10 0 59923 27900.00000 0 -14305247.813 1009889.607 21122258.964 10 0 59923 28800.00000 0 -16298556.188 -515962.227 19644563.584 10 0 59923 29700.00000 0 -18228974.851 -1776148.203 17786348.673 10 0 59923 30600.00000 0 -20031988.292 -2764151.842 15583579.793 10 0 59923 31500.00000 0 -21644939.869 -3485916.868 13078887.904 10 0 59923 32400.00000 0 -23009580.569 -3959345.078 10320754.112 10 0 59923 33300.00000 0 -24074455.012 -4213291.094 7362581.352 10 0 59923 34200.00000 0 -24797025.463 -4286096.411 4261669.941 10 0 59923 35100.00000 0 -25145445.024 -4223724.472 1078115.900 10 0 59923 36000.00000 0 -25099905.416 -4077575.238 -2126347.370 10 0 59923 36900.00000 0 -24653502.130 -3902071.298 -5289541.989 10 0 59923 37800.00000 0 -23812579.661 -3752117.500 -8350050.155 10 0 59923 38700.00000 0 -22596541.135 -3680541.646 -11248407.024 10 0 59923 39600.00000 0 -21037129.013 -3735624.887 -13928258.389 10 0 59923 40500.00000 0 -19177205.786 -3958827.021 -16337460.387 10 0 59923 41400.00000 0 -17069084.515 -4382803.898 -18429099.421 10 0 59923 42300.00000 0 -14772478.216 -5029802.019 -20162411.923 10 0 59923 43200.00000 0 -12352153.057 -5910499.676 -21503585.624 10 0 59923 44100.00000 0 -9875382.895 -7023345.279 -22426426.252 10 0 59923 45000.00000 0 -7409311.228 -8354422.503 -22912876.174 10 0 59923 45900.00000 0 -5018330.452 -9877849.764 -22953374.400 10 0 59923 46800.00000 0 -2761587.776 -11556698.867 -22547050.448 10 0 59923 47700.00000 0 -690721.897 -13344395.630 -21701747.749 10 0 59923 48600.00000 0 1152075.138 -15186544.766 -20433875.663 10 0 59923 49500.00000 0 2735590.141 -17023103.169 -18768092.510 10 0 59923 50400.00000 0 4040651.287 -18790810.634 -16736825.463 10 0 59923 51300.00000 0 5060677.143 -20425775.932 -14379636.482 10 0 59923 52200.00000 0 5801690.163 -21866109.253 -11742446.616 10 0 59923 53100.00000 0 6281795.352 -23054489.761 -8876634.170 10 0 59923 54000.00000 0 6530147.636 -23940559.653 -5838024.816 10 0 59923 54900.00000 0 6585453.313 -24483043.346 -2685794.118 10 0 59923 55800.00000 0 6494070.737 -24651502.106 518695.047 10 0 59923 56700.00000 0 6307792.523 -24427650.067 3713096.478 10 0 59923 57600.00000 0 6081404.924 -23806176.311 6835301.499 10 0 59923 58500.00000 0 5870129.237 -22795038.845 9824651.865 10 0 59923 59400.00000 0 5727054.845 -21415218.822 12623120.452 10 0 59923 60300.00000 0 5700673.306 -19699946.146 15176436.448 10 0 59923 61200.00000 0 5832618.163 -17693429.882 17435133.151 10 0 59923 62100.00000 0 6155705.989 -15449147.442 19355498.575 10 0 59923 63000.00000 0 6692360.990 -13027764.583 20900411.299 10 0 59923 63900.00000 0 7453489.049 -10494773.276 22040046.481 10 0 59923 64800.00000 0 8437848.068 -7917945.599 22752439.760 10 0 59923 65700.00000 0 9631940.659 -5364708.835 23023899.526 10 0 59923 66600.00000 0 11010433.488 -2899549.761 22849260.848 10 0 59923 67500.00000 0 12537085.890 -581554.354 22231977.204 10 0 59923 68400.00000 0 14166149.444 1537816.770 21184048.958 10 0 59923 69300.00000 0 15844180.814 3416626.685 19725790.242 10 0 59923 70200.00000 0 17512193.264 5023957.316 17885438.648 10 0 59923 71100.00000 0 19108058.245 6340941.018 15698614.756 10 0 59923 72000.00000 0 20569057.978 7361287.065 13207641.143 10 0 59923 72900.00000 0 21834483.507 8091282.277 10460733.063 10 0 59923 73800.00000 0 22848170.503 8549266.603 7511075.247 10 0 59923 74700.00000 0 23560867.177 8764606.087 4415801.776 10 0 59923 75600.00000 0 23932335.304 8776206.588 1234897.724 10 0 59923 76500.00000 0 23933095.964 8630630.768 -1969956.848 10 0 59923 77400.00000 0 23545746.064 8379897.632 -5136578.562 10 0 59923 78300.00000 0 22765789.329 8079057.358 -8203485.209 10 0 59923 79200.00000 0 21601945.560 7783643.934 -11111089.681 10 0 59923 80100.00000 0 20075923.651 7547113.437 -13802859.872 10 0 59923 81000.00000 0 18221666.359 7418376.727 -16226421.726 10 0 59923 81900.00000 0 16084096.907 7439531.591 -18334583.563 10 0 59923 82800.00000 0 13717418.595 7643891.132 -20086261.211 10 0 59923 83700.00000 0 11183037.340 8054392.918 -21447285.514 10 0 59923 84600.00000 0 8547193.028 8682457.414 -22391075.994 10 0 59923 85500.00000 0 5878397.962 9527345.358 -22899167.036 10 0 59924 0.00000 0 3244789.045 10576042.586 -22961575.898 10 0 59924 900.00000 0 711502.450 11803679.223 -22577004.806 10 0 59924 1800.00000 0 -1661816.295 13174465.448 -21752872.723 10 0 59924 2700.00000 0 -3823267.797 14643107.387 -20505175.766 10 0 59924 3600.00000 0 -5730622.342 16156642.963 -18858178.366 10 0 59924 4500.00000 0 -7352832.804 17656621.371 -16843940.958 10 0 59924 5400.00000 0 -8671073.936 19081534.404 -14501693.186 10 0 59924 6300.00000 0 -9679265.347 20369397.003 -11877064.817 10 0 59924 7200.00000 0 -10384057.254 21460367.738 -9021189.686 10 0 59924 8100.00000 0 -10804281.118 22299298.110 -5989700.647 10 0 59924 9000.00000 0 -10969889.978 22838102.415 -2841635.876 10 0 59924 9900.00000 0 -10920435.087 23037847.584 361721.067 10 0 59924 10800.00000 0 -10703145.169 22870474.330 3558043.789 10 0 59924 11700.00000 0 -10370691.452 22320076.843 6685183.683 10 0 59924 12600.00000 0 -9978734.736 21383687.151 9682383.813 10 0 59924 13500.00000 0 -9583359.733 20071531.479 12491461.774 10 0 59924 14400.00000 0 -9238506.229 18406748.338 15057938.128 10 0 59924 15300.00000 0 -8993506.227 16424580.886 17332088.499 10 0 59924 16200.00000 0 -8890831.219 14171077.979 19269899.371 10 0 59924 17100.00000 0 -8964144.325 11701358.700 20833909.926 10 0 59924 18000.00000 0 -9236738.809 9077513.014 21993924.711 10 0 59924 18900.00000 0 -9720427.911 6366225.822 22727584.720 10 0 59924 19800.00000 0 -10414931.932 3636222.556 23020787.228 10 0 59924 20700.00000 0 -11307787.683 955641.498 22867947.520 10 0 59924 21600.00000 0 -12374783.801 -1610559.643 22272098.563 10 0 59924 22500.00000 0 -13580903.730 -4003056.990 21244827.378 10 0 59924 23400.00000 0 -14881737.270 -6170373.684 19806049.692 10 0 59924 24300.00000 0 -16225302.424 -8070763.065 17983627.126 10 0 59924 25200.00000 0 -17554202.257 -9673685.456 15812833.824 10 0 59924 26100.00000 0 -18808027.635 -10960818.661 13335682.068 10 0 59924 27000.00000 0 -19925906.350 -11926561.406 10600118.907 10 0 59924 27900.00000 0 -20849092.760 -12578009.703 7659108.199 10 0 59924 28800.00000 0 -21523490.053 -12934407.689 4569614.830 10 0 59924 29700.00000 0 -21901999.554 -13026096.333 1391509.787 10 0 59924 30600.00000 0 -21946598.314 -12893004.259 -1813583.477 10 0 59924 31500.00000 0 -21630057.100 -12582744.091 -4983479.436 10 0 59924 32400.00000 0 -20937225.571 -12148394.455 -8056634.831 10 0 59924 33300.00000 0 -19865829.287 -11646061.131 -10973343.626 10 0 59924 34200.00000 0 -18426743.442 -11132320.357 -13676899.062 10 0 59924 35100.00000 0 -16643730.082 -10661652.522 -16114699.974 10 0 59924 36000.00000 0 -14552647.997 -10283975.103 -18239279.416 10 0 59924 36900.00000 0 -12200166.719 -10042379.701 -20009235.072 10 0 59924 37800.00000 0 -9642036.886 -9971169.622 -21390042.888 10 0 59924 38700.00000 0 -6940987.912 -10094281.863 -22354737.629 10 0 59924 39600.00000 0 -4164339.775 -10424161.212 -22884446.565 10 0 59924 40500.00000 0 -1381427.783 -10961135.158 -22968765.435 10 0 59924 41400.00000 0 1339052.904 -11693317.144 -22605968.872 10 0 59924 42300.00000 0 3931672.477 -12597043.289 -21803050.630 10 0 59924 43200.00000 0 6336752.230 -13637825.089 -20575592.367 10 0 59924 44100.00000 0 8502607.314 -14771778.622 -18947463.047 10 0 59924 45000.00000 0 10387452.978 -15947470.329 -16950354.481 10 0 59924 45900.00000 0 11960895.033 -17108101.611 -14623161.840 10 0 59924 46800.00000 0 13204942.706 -18193939.814 -12011221.216 10 0 59924 47700.00000 0 14114502.276 -19144892.409 -9165419.371 10 0 59924 48600.00000 0 14697331.967 -19903114.991 -6141193.566 10 0 59924 49500.00000 0 14973461.544 -20415542.042 -2997441.692 10 0 59924 50400.00000 0 14974102.759 -20636232.756 204634.981 10 0 59924 51300.00000 0 14740098.622 -20528432.084 3402732.825 10 0 59924 52200.00000 0 14319978.901 -20066259.496 6534666.183 10 0 59924 53100.00000 0 13767705.895 -19235953.927 9539582.163 10 0 59924 54000.00000 0 13140207.375 -18036622.482 12359145.578 10 0 59924 54900.00000 0 12494802.186 -16480461.593 14938670.614 10 0 59924 55800.00000 0 11886628.038 -14592441.756 17228177.151 10 0 59924 56700.00000 0 11366180.331 -12409469.498 19183351.748 10 0 59924 57600.00000 0 10977065.610 -9979061.954 20766395.447 10 0 59924 58500.00000 0 10754063.628 -7357589.590 21946743.102 10 0 59924 59400.00000 0 10721578.714 -4608160.116 22701641.622 10 0 59924 60300.00000 0 10892544.447 -1798231.047 23016577.401 10 0 59924 61200.00000 0 11267826.667 1002950.786 22885545.873 10 0 59924 62100.00000 0 11836149.050 3726977.859 22311159.131 10 0 59924 63000.00000 0 12574543.882 6308871.360 21304590.245 10 0 59924 63900.00000 0 13449309.019 8689525.705 19885355.702 10 0 59924 64800.00000 0 14417431.206 10817908.704 18080940.109 10 0 59924 65700.00000 0 15428416.739 12652927.876 15926269.944 10 0 59924 66600.00000 0 16426453.554 14164886.874 13463045.764 10 0 59924 67500.00000 0 17352815.040 15336472.843 10738944.795 10 0 59924 68400.00000 0 18148405.611 16163234.543 7806708.191 10 0 59924 69300.00000 0 18756341.856 16653531.925 4723129.611 10 0 59924 70200.00000 0 19124461.201 16827959.696 1547963.732 10 0 59924 71100.00000 0 19207652.637 16718269.135 -1657224.979 10 0 59924 72000.00000 0 18969911.023 16365833.409 -4830251.325 10 0 59924 72900.00000 0 18386027.662 15819720.772 -7909513.516 10 0 59924 73800.00000 0 17442844.721 15134456.679 -10835189.066 10 0 59924 74700.00000 0 16140019.138 14367569.036 -13550398.949 10 0 59924 75600.00000 0 14490262.054 13577020.190 -16002317.124 10 0 59924 76500.00000 0 12519041.676 12818634.198 -18143203.452 10 0 59924 77400.00000 0 10263760.137 12143628.348 -19931339.365 10 0 59924 78300.00000 0 7772436.887 11596353.624 -21331847.638 10 0 59924 79200.00000 0 5101951.999 11212340.122 -22317379.821 10 0 59924 80100.00000 0 2315921.441 11016730.673 -22868657.414 10 0 59924 81000.00000 0 -517708.168 11023169.544 -22974855.766 10 0 59924 81900.00000 0 -3329245.830 11233193.942 -22633822.732 10 0 59924 82800.00000 0 -6049916.098 11636154.722 -21852127.281 10 0 59924 83700.00000 0 -8614482.134 12209670.295 -20644936.640 10 0 59924 84600.00000 0 -10963722.698 12920595.053 -19035723.880 10 0 59924 85500.00000 0 -13046659.724 13726461.626 -17055811.311 10 0 59925 0.00000 0 -14822443.530 14577335.979 -14743758.572 10 0 59925 900.00000 0 -16261818.026 15418007.079 -12144606.011 10 0 59925 1800.00000 0 -17348102.756 16190416.848 -9308991.588 10 0 59925 2700.00000 0 -18077654.660 16836228.362 -6292154.818 10 0 59925 3600.00000 0 -18459788.922 17299421.577 -3152850.992 10 0 59925 4500.00000 0 -18516164.714 17528806.245 47803.344 10 0 59925 5400.00000 0 -18279663.346 17480344.738 3247529.862 10 0 59925 6300.00000 0 -17792808.035 17119185.815 6384108.462 10 0 59925 7200.00000 0 -17105793.830 16421322.890 9396592.963 10 0 59925 8100.00000 0 -16274212.655 15374806.569 12226498.104 10 0 59925 9000.00000 0 -15356570.863 13980460.294 14818934.389 10 0 59925 9900.00000 0 -14411705.084 12252069.214 17123668.603 10 0 59925 10800.00000 0 -13496205.802 10216034.558 19096089.908 10 0 59925 11700.00000 0 -12661957.129 7910508.209 20698063.570 10 0 59925 12600.00000 0 -11953895.816 5384043.769 21898656.861 10 0 59925 13500.00000 0 -11408082.721 2693820.188 22674724.448 10 0 59925 14400.00000 0 -11050166.552 -96488.611 23011343.333 10 0 59925 15300.00000 0 -10894303.033 -2919110.355 22902090.209 10 0 59925 16200.00000 0 -10942573.583 -5704739.038 22349157.002 10 0 59925 17100.00000 0 -11184926.866 -8385162.688 21363303.093 10 0 59925 18000.00000 0 -11599644.991 -10895846.953 19963645.542 10 0 59925 18900.00000 0 -12154314.527 -13178369.181 18177291.305 10 0 59925 19800.00000 0 -12807261.741 -15182603.812 16038818.104 10 0 59925 20700.00000 0 -13509392.303 -16868569.769 13589613.275 10 0 59925 21600.00000 0 -14206358.883 -18207864.488 10877082.341 10 0 59925 22500.00000 0 -14840966.364 -19184625.821 7953741.549 10 0 59925 23400.00000 0 -15355714.216 -19795982.363 4876210.860 10 0 59925 24300.00000 0 -15695369.574 -20051973.751 1704125.936 10 0 59925 25200.00000 0 -15809462.834 -19974944.377 -1501010.638 10 0 59925 26100.00000 0 -15654600.421 -19598435.788 -4677017.037 10 0 59925 27000.00000 0 -15196496.616 -18965624.091 -7762236.111 10 0 59925 27900.00000 0 -14411637.708 -18127367.769 -10696732.176 10 0 59925 28800.00000 0 -13288506.890 -17139947.859 -13423457.207 10 0 59925 29700.00000 0 -11828316.548 -16062595.509 -15889363.506 10 0 59925 30600.00000 0 -10045215.060 -14954911.077 -18046440.793 10 0 59925 31500.00000 0 -7965957.364 -13874283.678 -19852657.024 10 0 59925 32400.00000 0 -5629050.958 -12873420.198 -21272784.188 10 0 59925 33300.00000 0 -3083411.098 -11998088.281 -22279092.531 10 0 59925 34200.00000 0 -386579.751 -11285168.892 -22851899.136 10 0 59925 35100.00000 0 2397418.788 -10761101.016 -22979959.753 10 0 59925 36000.00000 0 5200497.268 -10440784.553 -22660695.692 10 0 59925 36900.00000 0 7953099.651 -10326988.112 -21900250.856 10 0 59925 37800.00000 0 10586862.396 -10410287.012 -20713377.296 10 0 59925 38700.00000 0 13037232.147 -10669534.309 -19123151.034 10 0 59925 39600.00000 0 15245930.552 -11072844.961 -17160523.331 10 0 59925 40500.00000 0 17163163.351 -11579051.325 -14863715.931 10 0 59925 41400.00000 0 18749481.461 -12139567.969 -12277472.005 10 0 59925 42300.00000 0 19977216.310 -12700586.213 -9452177.688 10 0 59925 43200.00000 0 20831429.835 -13205504.581 -6442871.816 10 0 59925 44100.00000 0 21310340.066 -13597491.199 -3308163.883 10 0 59925 45000.00000 0 21425205.579 -13822068.493 -109082.355 10 0 59925 45900.00000 0 21199675.167 -13829609.663 3092123.154 10 0 59925 46800.00000 0 20668631.844 -13577640.288 6233201.458 10 0 59925 47700.00000 0 19876581.699 -13032846.975 9253116.259 10 0 59925 48600.00000 0 18875657.277 -12172707.685 12093235.119 10 0 59925 49500.00000 0 17723321.190 -10986674.661 14698467.409 10 0 59925 50400.00000 0 16479867.906 -9476860.154 17018328.978 10 0 59925 51300.00000 0 15205829.611 -7658196.171 19007913.344 10 0 59925 52200.00000 0 13959395.424 -5558061.648 20628751.346 10 0 59925 53100.00000 0 12793952.076 -3215392.757 21849543.633 10 0 59925 54000.00000 0 11755848.412 -679313.283 22646753.201 10 0 59925 54900.00000 0 10882476.238 1992658.284 23005047.883 10 0 59925 55800.00000 0 10200746.456 4736751.049 22917585.509 10 0 59925 56700.00000 0 9726022.790 7485345.520 22386137.388 10 0 59925 57600.00000 0 9461556.273 10169540.565 21421048.467 10 0 59925 58500.00000 0 9398443.029 12721778.556 20041035.355 10 0 59925 59400.00000 0 9516106.257 15078421.515 18272826.080 10 0 59925 60300.00000 0 9783281.767 17182173.106 16150648.121 10 0 59925 61200.00000 0 10159465.722 18984247.329 13715573.872 10 0 59925 62100.00000 0 10596764.042 20446195.101 11014735.247 10 0 59925 63000.00000 0 11042066.248 21541313.705 8100421.471 10 0 59925 63900.00000 0 11439452.865 22255580.906 5029076.515 10 0 59925 64800.00000 0 11732735.473 22588075.087 1860214.571 10 0 59925 65700.00000 0 11868022.648 22550863.848 -1344726.214 10 0 59925 66600.00000 0 11796203.553 22168365.461 -4523570.020 10 0 59925 67500.00000 0 11475243.944 21476209.671 -7614606.936 10 0 59925 68400.00000 0 10872196.891 20519645.161 -10557790.600 10 0 59925 69300.00000 0 9964842.118 19351560.260 -13295906.371 10 0 59925 70200.00000 0 8742883.201 18030199.731 -15775687.079 10 0 59925 71100.00000 0 7208650.238 16616673.445 -17948854.282 10 0 59925 72000.00000 0 5377276.338 15172361.705 -19773064.233 10 0 59925 72900.00000 0 3276338.267 13756326.385 -21212739.692 10 0 59925 73800.00000 0 944974.134 12422836.972 -22239770.927 10 0 59925 74700.00000 0 -1567486.857 11219115.822 -22834071.710 10 0 59925 75600.00000 0 -4203327.065 10183397.776 -22983978.998 10 0 59925 76500.00000 0 -6898601.599 9343386.010 -22686488.040 10 0 59925 77400.00000 0 -9585568.747 8715169.349 -21947317.755 10 0 59925 78300.00000 0 -12195288.992 8302646.729 -20780804.664 10 0 59925 79200.00000 0 -14660284.448 8097482.987 -19209626.924 10 0 59925 80100.00000 0 -16917147.801 8079597.628 -17264363.506 10 0 59925 81000.00000 0 -18908991.664 8218165.492 -14982896.851 10 0 59925 81900.00000 0 -20587635.864 8473086.330 -12409670.604 10 0 59925 82800.00000 0 -21915440.995 8796860.275 -9594817.129 10 0 59925 83700.00000 0 -22866711.539 9136788.735 -6593172.299 10 0 59925 84600.00000 0 -23428610.147 9437406.232 -3463197.453 10 0 59925 85500.00000 0 -23601545.348 9643038.910 -265830.573 10 0 59926 0.00000 0 -23399017.572 9700379.999 2936709.596 10 0 59926 900.00000 0 -22846931.181 9560971.969 6082143.818 10 0 59926 1800.00000 0 -21982403.413 9183489.330 9109347.869 10 0 59926 2700.00000 0 -20852121.694 8535724.870 11959544.630 10 0 59926 3600.00000 0 -19510320.223 7596194.907 14577444.791 10 0 59926 4500.00000 0 -18016462.235 6355295.710 16912315.646 10 0 59926 5400.00000 0 -16432726.284 4815962.388 18918957.299 10 0 59926 6300.00000 0 -14821402.501 2993802.609 20558568.174 10 0 59926 7200.00000 0 -13242307.931 916699.608 21799484.039 10 0 59926 8100.00000 0 -11750328.592 -1376099.015 22617777.647 10 0 59926 9000.00000 0 -10393189.926 -3835369.099 22997708.727 10 0 59926 9900.00000 0 -9209547.502 -6403717.022 22932016.951 10 0 59926 10800.00000 0 -8227476.009 -9017731.979 22422053.352 10 0 59926 11700.00000 0 -7463418.018 -11610395.234 21477748.422 10 0 59926 12600.00000 0 -6921634.874 -14113647.723 20117417.945 10 0 59926 13500.00000 0 -6594181.354 -16461011.048 18367410.307 10 0 59926 14400.00000 0 -6461404.203 -18590154.646 16261601.685 10 0 59926 15300.00000 0 -6492943.110 -20445303.913 13840748.177 10 0 59926 16200.00000 0 -6649191.937 -21979390.440 11151706.446 10 0 59926 17100.00000 0 -6883158.957 -23155855.797 8246536.810 10 0 59926 18000.00000 0 -7142648.168 -23950034.248 5181505.143 10 0 59926 18900.00000 0 -7372670.196 -24350056.918 2016001.887 10 0 59926 19800.00000 0 -7517981.435 -24357239.559 -1188601.712 10 0 59926 20700.00000 0 -7525644.375 -23985937.267 -4370138.437 10 0 59926 21600.00000 0 -7347500.799 -23262871.758 -7466848.376 10 0 59926 22500.00000 0 -6942452.774 -22225958.740 -10418577.368 10 0 59926 23400.00000 0 -6278454.156 -20922683.978 -13167947.105 10 0 59926 24300.00000 0 -5334127.118 -19408095.669 -15661473.924 10 0 59926 25200.00000 0 -4099933.795 -17742496.945 -17850614.121 10 0 59926 26100.00000 0 -2578851.692 -15988935.135 -19692714.948 10 0 59926 27000.00000 0 -786522.274 -14210593.029 -21151852.351 10 0 59926 27900.00000 0 1249135.749 -12468191.620 -22199538.646 10 0 59926 28800.00000 0 3488834.300 -10817513.447 -22815285.848 10 0 59926 29700.00000 0 5883308.885 -9307150.589 -22987013.198 10 0 59926 30600.00000 0 8375140.040 -7976571.960 -22711290.451 10 0 59926 31500.00000 0 10900928.299 -6854591.147 -21993411.645 10 0 59926 32400.00000 0 13393732.775 -5958299.110 -20847297.429 10 0 59926 33300.00000 0 15785671.977 -5292506.384 -19295227.338 10 0 59926 34200.00000 0 18010578.307 -4849717.923 -17367406.881 10 0 59926 35100.00000 0 20006595.182 -4610640.977 -15101377.617 10 0 59926 36000.00000 0 21718607.886 -4545203.714 -12541281.668 10 0 59926 36900.00000 0 23100406.029 -4614040.503 -9736995.211 10 0 59926 37800.00000 0 24116486.792 -4770379.755 -6743148.360 10 0 59926 38700.00000 0 24743423.325 -4962252.965 -3618051.172 10 0 59926 39600.00000 0 24970741.123 -5134929.941 -422547.791 10 0 59926 40500.00000 0 24801266.227 -5233475.523 2781177.942 10 0 59926 41400.00000 0 24250931.619 -5205318.098 5930821.035 10 0 59926 42300.00000 0 23348051.215 -5002719.963 8965173.231 10 0 59926 43200.00000 0 22132093.463 -4585044.063 11825315.777 10 0 59926 44100.00000 0 20652007.559 -3920720.630 14455763.430 10 0 59926 45000.00000 0 18964173.944 -2988830.407 16805537.287 10 0 59926 45900.00000 0 17130066.130 -1780237.601 18829146.025 10 0 59926 46800.00000 0 15213722.481 -298224.947 20487457.247 10 0 59926 47700.00000 0 13279133.933 1441395.679 21748443.062 10 0 59926 48600.00000 0 11387656.456 3410701.744 22587786.826 10 0 59926 49500.00000 0 9595555.356 5570590.383 22989340.651 10 0 59926 50400.00000 0 7951782.588 7872182.142 22945426.177 10 0 59926 51300.00000 0 6496078.074 10258640.458 22456973.913 10 0 59926 52200.00000 0 5257472.360 12667332.273 21533499.286 10 0 59926 53100.00000 0 4253251.296 15032241.146 20192916.298 10 0 59926 54000.00000 0 3488424.242 17286534.131 18461192.398 10 0 59926 54900.00000 0 2955716.657 19365177.215 16371850.874 10 0 59926 55800.00000 0 2636086.401 21207491.952 13965329.674 10 0 59926 56700.00000 0 2499741.459 22759548.157 11288208.105 10 0 59926 57600.00000 0 2507616.126 23976293.943 8392315.265 10 0 59926 58500.00000 0 2613243.655 24823334.807 5333736.428 10 0 59926 59400.00000 0 2764946.702 25278287.691 2171735.622 10 0 59926 60300.00000 0 2908253.485 25331653.271 -1032385.577 10 0 59926 61200.00000 0 2988437.832 24987169.452 -4216471.382 10 0 59926 62100.00000 0 2953075.800 24261630.583 -7318714.676 10 0 59926 63000.00000 0 2754510.451 23184179.101 -10278856.200 10 0 59926 63900.00000 0 2352119.936 21795098.425 -13039356.526 10 0 59926 64800.00000 0 1714291.961 20144156.892 -15546517.823 10 0 59926 65700.00000 0 820019.813 18288571.390 -17751533.210 10 0 59926 66600.00000 0 -339949.117 16290675.573 -19611442.781 10 0 59926 67500.00000 0 -1762462.715 14215389.925 -21089977.237 10 0 59926 68400.00000 0 -3431840.906 12127599.457 -22158272.252 10 0 59926 69300.00000 0 -5320287.089 10089548.796 -22795439.097 10 0 59926 70200.00000 0 -7388818.957 8158363.752 -22988979.975 10 0 59926 71100.00000 0 -9588681.513 6383803.130 -22735039.449 10 0 59926 72000.00000 0 -11863184.496 4806335.032 -22038486.543 10 0 59926 72900.00000 0 -14149888.417 3455618.127 -20912825.432 10 0 59926 73800.00000 0 -16383048.468 2349451.316 -19379935.952 10 0 59926 74700.00000 0 -18496214.229 1493235.489 -17469648.622 10 0 59926 75600.00000 0 -20424876.365 879969.275 -15219162.208 10 0 59926 76500.00000 0 -22109049.176 490777.983 -12672315.083 10 0 59926 77400.00000 0 -23495680.236 295952.294 -9878724.811 10 0 59926 78300.00000 0 -24540785.654 256451.373 -6892813.179 10 0 59926 79200.00000 0 -25211220.954 325805.282 -3772736.341 10 0 59926 80100.00000 0 -25486013.069 452334.526 -579241.946 10 0 59926 81000.00000 0 -25357197.695 581591.031 2625523.434 10 0 59926 81900.00000 0 -24830127.338 658915.579 5779232.267 10 0 59926 82800.00000 0 -23923237.989 632001.996 8820594.580 10 0 59926 83700.00000 0 -22667285.385 453358.412 11690552.545 10 0 59926 84600.00000 0 -21104084.163 82560.672 14333427.423 10 0 59926 85500.00000 0 -19284804.105 -511797.735 16697996.403 99